Home > Weather > Cumaná > Past weeks

Flag for Venezuela Past Weather in Cumaná, Venezuela — Yesterday and Last 2 Weeks

Now
90 °F

Passing clouds.


Feels Like: 96 °F
Forecast: N/A
Wind: N/A

Location: Margarita / Del Carib

Current Time: Jul 1, 2016 at 4:55:41 PM

Latest Report: Jul 1, 2016 at 4:00 PM


Visibility: N/A

Pressure: 29.86 "Hg

Humidity: 55%

Dew Point: 72 °F

Location of CumanáLocation

Past Weather in Cumaná — Graph

°F

Cumaná Temperature Yesterday

Maximum temperature yesterday: 93 °F (at 3:00 PM)
Minimum temperature yesterday: 79 °F (at 2:00 AM)
Average temperature yesterday: 84 °F

High & Low Weather Summary for the Past Weeks

 TemperatureHumidityPressure
High93 °F (Jun 17, 3:00 PM)100% (Jun 17, 6:00 AM)30.04 "Hg (Jun 17, 6:00 AM)
Low75 °F (Jun 24, 4:00 AM)41% (Jun 19, 2:00 PM)29.86 "Hg (Jun 25, 5:00 PM)
Average83 °F75%29.95 "Hg
* Reported Jun 16 4:00 PM — Jul 1 4:00 PM, Cumaná, Weather by CustomWeather, © 2016

Note: Actual official high and low records may vary slightly from our data, if they occured in-between our weather recording intervals... More about our weather records

Advertising

Cumaná Weather History for the Previous 24 Hours

Scroll right to see more
 ConditionsComfort  
Time TempWeatherWind HumidityBarometerVisibility
4:00 PM
Fri, Jul 1
90 °FPassing clouds.N/A55%29.86 "HgN/A
3:00 PM91 °FPassing clouds.N/A49%29.89 "HgN/A
2:00 PM91 °FPassing clouds.N/A46%29.92 "HgN/A
1:00 PM91 °FPassing clouds.N/A52%29.95 "HgN/A
12:00 PM90 °FPassing clouds.N/A59%29.95 "HgN/A
11:00 AM90 °FPassing clouds.N/A55%29.95 "HgN/A
10:00 AM88 °FPassing clouds.N/A62%29.95 "HgN/A
9:00 AM86 °FPassing clouds.N/A66%29.95 "HgN/A
8:00 AM82 °FPassing clouds.N/A79%29.95 "HgN/A
7:00 AM81 °FPassing clouds.N/A84%29.95 "HgN/A
6:00 AM79 °FPassing clouds.N/A89%29.92 "HgN/A
5:00 AM79 °FPassing clouds.N/A89%29.92 "HgN/A
4:00 AM79 °FPassing clouds.N/A89%29.95 "HgN/A
3:00 AM79 °FPassing clouds.N/A89%29.95 "HgN/A
2:00 AM81 °FPassing clouds.N/A84%29.95 "HgN/A
1:00 AM81 °FPassing clouds.N/A84%29.98 "HgN/A
11:00 PM
Thu, Jun 30
81 °FPassing clouds.N/A84%29.95 "HgN/A
10:00 PM81 °FPassing clouds.N/A84%29.95 "HgN/A
9:00 PM81 °FPassing clouds.N/A84%29.95 "HgN/A
8:00 PM81 °FPassing clouds.N/A84%29.89 "HgN/A
7:00 PM82 °FPassing clouds.N/A79%29.89 "HgN/A
6:00 PM84 °FPassing clouds.N/A79%29.89 "HgN/A
5:00 PM88 °FPassing clouds.N/A62%29.89 "HgN/A
4:00 PM90 °FPassing clouds.N/A59%29.89 "HgN/A
Weather by CustomWeather, © 2016

See weather overviewHow to use our weather pages